Zurück zum Katalog

STARLINK-35723

AktivKommunikationVLEO
NORAD 66211·PAYLOAD·🇺🇸 United States

Gestartet Oct 28, 2025 von Vandenberg Space Force Base

Loading…

Nächste Überflüge (nächste 24 Stunden)

TLE

AktuellSource: CelesTrak SupGP

Epoche: Sep 15, 2026, 02:37 UTC

1 66211C 25244F   26258.10951389 -.00128240  00000+0 -37837-2 0  2588
2 66211  53.1577  66.7759 0001286  82.5628  42.0213 15.34497559    19

Verfolge STARLINK-35723 in Echtzeit mit AllMySat

Download on the App Store